TIANMU-1 13

Last updated on Fri Oct 11 2024 00:02:18 GMT+0000 (Coordinated Universal Time)

1 58647U 23205C 24284.54054067 .00013650 00000+0 68528-3 0 9999 2 58647 97.3992 306.7192 0008834 352.3034 7.8062 15.17381317 43975
UTC large
Height (km)
Speed (km/s)
/
Latitude / Longitude
Inclination (degrees)
Orbital Period (minutes)
Azimuth
Elevation
Range (km)
Doppler Factor

Next 0 passes for location: London (51.5072 / 0.1276)

Sorry there are no passes over London.